"Pseudo-MPEC" for CARL9V2

Created 2024 Sep 9 6:22:06 UT using Find_Orb

Click here for an explanation of pseudo-MPECs

 
 Astrometry: 
     CARL9V2*1C2024 09 07.23230223 00 39.596+15 22 07.10   ~976M 21.53GVNEOCPG96
     CARL9V2 1C2024 09 07.23746423 00 38.387+15 22 41.70   ~976M 21.42GVNEOCPG96
     CARL9V2 1C2024 09 07.24262923 00 37.120+15 23 16.76   ~976M 21.62GVNEOCPG96
     CARL9V2 1C2024 09 07.24780223 00 35.888+15 23 51.54   ~976M 22.36GVNEOCPG96
     CARL9V2 KC2024 09 07.29061023 00 25.274+15 28 37.80   ~977q 21.2 GVNEOCPH01
     CARL9V2  C2024 09 07.29332823 00 24.598+15 28 55.85   ~977q 21.4 GVNEOCPH01
     CARL9V2  C2024 09 07.30938023 00 20.730+15 30 43.20   ~977q 21.3 GVNEOCPH01
     CARL9V2  C2024 09 07.31433223 00 19.537+15 31 16.42   ~977q 21.3 GVNEOCPH01
     CARL9V2 KC2024 09 07.33718823 00 14.245+15 33 50.69   ~978b 21.60GVNEOCPV06
     CARL9V2 KC2024 09 07.33987223 00 13.612+15 34 08.44   ~978b 21.51GVNEOCPV06
     CARL9V2 KC2024 09 07.34255823 00 12.949+15 34 26.40   ~978b 21.50GVNEOCPV06
     CARL9V2 KC2024 09 07.34524023 00 12.308+15 34 44.22   ~978b 21.70GVNEOCPV06
     CARL9V2 1C2024 09 07.96648 22 58 00.54 +16 42 08.9    ~97Nq 20.4 VXNEOCP033
     CARL9V2 1C2024 09 07.96872 22 58 00.03 +16 42 23.3    ~97Nq 20.9 VXNEOCP033
     CARL9V2 1C2024 09 07.97094 22 57 59.52 +16 42 37.5    ~97Nq 20.7 VXNEOCP033
     CARL9V2 1C2024 09 07.97317 22 57 58.99 +16 42 51.8    ~97Nq 20.8 VXNEOCP033
     CARL9V2 1C2024 09 08.12070 22 57 25.65 +16 58 26.6    ~983M 21.9 VXNEOCP033
     CARL9V2 1C2024 09 08.12298 22 57 25.12 +16 58 41.1    ~983M 20.8 VXNEOCP033
     CARL9V2 1C2024 09 08.12768 22 57 24.15 +16 59 10.3    ~983M 21.0 VXNEOCP033

Station data:
(033) Karl Schwarzschild Observatory, Tautenburg  (N50.980139 E11.711240)
   Germany.  Observer B. Stecklum. 1.34-m f/3 Schmidt + CCD.
(G96) Mt. Lemmon Survey  (N32.442729 W110.788720)  US/Arizona.  Observer E.
   J. Christensen. 1.5-m reflector + 10K CCD.
(H01) Magdalena Ridge Observatory, Socorro  (N33.984833 W107.189333)  US/New
   Mexico.  Observers W. H. Ryan, E. V. Ryan. Measurer W. H. Ryan. 2.4-m
   f/8.9 reflector + CCD.
(V06) Catalina Sky Survey-Kuiper  (N32.416871 W110.732550)  US/Arizona.
   Observers T. A. Pruyne, B. M. Africano, E. J. Christensen, G. A. Farneth,
   D. C. Fuls, A. R. Gibbs, A. D. Grauer, H. Gröller, J. A. Johnson, R. A.
   Kowalski, S. M. Larson, G. J. Leonard, D. Rankin, R. L. Seaman, F. C.
   Shelly, K. W. Wierzchoś. 1.55-m reflector + CCD.

Orbital elements:  CARL9V2
   Perihelion 2024 Aug 8.59830 +/- 0.374 TT = 14:21:33 (JD 2460531.09830)
Epoch 2024 Sep  8.0 TT = JDT 2460561.5   Earth MOID: 0.1000      AutoNEOCP
M  16.39221351 +/- 0.17             (J2000 ecliptic)
n   0.53918743 +/- 0.004            Peri.  339.25459 +/- 0.41
a   1.49500578 +/- 0.00739          Node   338.56726 +/- 0.019
e   0.2656495 +/- 0.00373           Incl.   17.36406 +/- 0.11
P   1.828/667.659d         H 24.73  G  0.15   U  9.0
q 1.09785819 +/- 0.00107    Q 1.89215336 +/- 0.0149
From 19 observations 2024 Sept. 7-8 (21.5 hr); mean residual 0".15
Residuals in arcseconds: 
240907 G96  .24-  .26+    240907 H01  .05+  .02+    240907 033  .11+  .10+    
240907 G96  .23+  .04-    240907 V06  .06-  .00     240907 033  .13-  .12+    
240907 G96  .11-  .12+    240907 V06  .16+  .11-    240908 033  .04-  .12-    
240907 G96  .11+  .02-    240907 V06  .06-  .02-    240908 033  .46-  .07+    
240907 H01  .08+  .01+    240907 V06  .02+  .03-    240908 033  .41+  .23-    
240907 H01  .19-  .15-    240907 033  .02+  .07+    
240907 H01  .01+  .14-    240907 033  .10+  .12+    

Ephemerides (geocentric):
Date (UTC) HH   RA             Dec           delta  r     elong  mag " sig PA
---- --------  ------------   ------------  ------ ------ -----  --- --------
2024 09 09 06  22 53 36.509   +18 54 12.93  .13293 1.1295 155.5 21.7 .985   7
2024 09 09 07  22 53 28.163   +18 58 17.68  .13309 1.1296 155.4 21.7 1.02   7
2024 09 09 08  22 53 19.831   +19 02 21.74  .13325 1.1296 155.3 21.7 1.05   6
2024 09 09 09  22 53 11.514   +19 06 25.10  .13340 1.1297 155.3 21.7 1.08   6
2024 09 09 10  22 53 03.211   +19 10 27.77  .13356 1.1298 155.2 21.7 1.12   5
2024 09 09 11  22 52 54.923   +19 14 29.75  .13372 1.1299 155.2 21.7 1.15   5
2024 09 09 12  22 52 46.650   +19 18 31.03  .13388 1.1300 155.1 21.7 1.19   4
2024 09 09 13  22 52 38.390   +19 22 31.63  .13404 1.1300 155.0 21.7 1.23   4
2024 09 09 14  22 52 30.146   +19 26 31.53  .13420 1.1301 155.0 21.7 1.26   3
2024 09 09 15  22 52 21.916   +19 30 30.75  .13436 1.1302 154.9 21.7 1.30   3
2024 09 09 16  22 52 13.700   +19 34 29.27  .13452 1.1303 154.8 21.7 1.34   2
2024 09 09 17  22 52 05.500   +19 38 27.12  .13468 1.1304 154.8 21.7 1.38   2
2024 09 09 18  22 51 57.313   +19 42 24.27  .13485 1.1305 154.7 21.7 1.42   1
2024 09 09 19  22 51 49.141   +19 46 20.75  .13501 1.1305 154.6 21.7 1.46   1
2024 09 09 20  22 51 40.984   +19 50 16.54  .13517 1.1306 154.6 21.7 1.50   1
2024 09 09 21  22 51 32.842   +19 54 11.65  .13533 1.1307 154.5 21.7 1.54   0
2024 09 09 22  22 51 24.714   +19 58 06.08  .13549 1.1308 154.5 21.7 1.58   0
2024 09 09 23  22 51 16.600   +20 01 59.83  .13566 1.1309 154.4 21.7 1.62   0
2024 09 10 00  22 51 08.501   +20 05 52.90  .13582 1.1309 154.3 21.7 1.67 179
2024 09 10 01  22 51 00.417   +20 09 45.29  .13598 1.1310 154.3 21.8 1.71 179
2024 09 10 02  22 50 52.348   +20 13 37.01  .13615 1.1311 154.2 21.8 1.75 178
2024 09 10 03  22 50 44.293   +20 17 28.06  .13631 1.1312 154.1 21.8 1.80 178
2024 09 10 04  22 50 36.252   +20 21 18.43  .13647 1.1313 154.1 21.8 1.84 178
2024 09 10 05  22 50 28.226   +20 25 08.13  .13664 1.1314 154.0 21.8 1.89 177
2024 09 10 06  22 50 20.215   +20 28 57.16  .13680 1.1314 154.0 21.8 1.93 177
2024 09 10 07  22 50 12.219   +20 32 45.52  .13697 1.1315 153.9 21.8 1.98 177
2024 09 10 08  22 50 04.237   +20 36 33.21  .13713 1.1316 153.8 21.8 2.03 177
2024 09 10 09  22 49 56.270   +20 40 20.24  .13730 1.1317 153.8 21.8 2.07 176
2024 09 10 10  22 49 48.317   +20 44 06.60  .13747 1.1318 153.7 21.8 2.12 176
2024 09 10 11  22 49 40.380   +20 47 52.29  .13763 1.1319 153.6 21.8 2.17 176
2024 09 10 12  22 49 32.456   +20 51 37.33  .13780 1.1319 153.6 21.8 2.22 175
2024 09 10 13  22 49 24.548   +20 55 21.70  .13797 1.1320 153.5 21.8 2.27 175
2024 09 10 14  22 49 16.654   +20 59 05.41  .13813 1.1321 153.5 21.8 2.32 175
2024 09 10 15  22 49 08.775   +21 02 48.46  .13830 1.1322 153.4 21.8 2.37 175
2024 09 10 16  22 49 00.910   +21 06 30.85  .13847 1.1323 153.3 21.8 2.42 174
2024 09 10 17  22 48 53.060   +21 10 12.58  .13864 1.1324 153.3 21.8 2.47 174
2024 09 10 18  22 48 45.225   +21 13 53.66  .13881 1.1324 153.2 21.8 2.52 174
2024 09 10 19  22 48 37.405   +21 17 34.09  .13897 1.1325 153.2 21.8 2.57 174
2024 09 10 20  22 48 29.599   +21 21 13.86  .13914 1.1326 153.1 21.8 2.62 174
2024 09 10 21  22 48 21.808   +21 24 52.98  .13931 1.1327 153.0 21.8 2.67 173
2024 09 10 22  22 48 14.031   +21 28 31.45  .13948 1.1328 153.0 21.8 2.73 173
2024 09 10 23  22 48 06.270   +21 32 09.27  .13965 1.1329 152.9 21.8 2.78 173
2024 09 11 00  22 47 58.523   +21 35 46.44  .13982 1.1329 152.8 21.9 2.83 173
2024 09 11 01  22 47 50.790   +21 39 22.97  .13999 1.1330 152.8 21.9 2.89 172
2024 09 11 02  22 47 43.073   +21 42 58.85  .14016 1.1331 152.7 21.9 2.94 172
2024 09 11 03  22 47 35.370   +21 46 34.09  .14033 1.1332 152.7 21.9 3.00 172
2024 09 11 04  22 47 27.682   +21 50 08.69  .14051 1.1333 152.6 21.9 3.05 172
2024 09 11 05  22 47 20.008   +21 53 42.64  .14068 1.1334 152.5 21.9 3.11 172